Regional Weather Roundup
Issued by NWS

Home | Current Version | Previous Version | Graphics & Text | Print | Product List | Glossary On
Versions: 1 2 3 4 5 6 7 8 9 10 11 12 13 14 15 16 17 18 19 20 21 22 23 24 25 26 27 28 29 30 31 32 33 34 35 36 37 38 39 40 41 42 43 44 45 46 47 48 49 50
263
ASUS45 KCYS 250010
RWRWY

WYOMING REGIONAL WEATHER ROUNDUP
NATIONAL WEATHER SERVICE CHEYENNE WY
600 PM MDT SAT SEP 24 2016

NOTE:  "FAIR" INDICATES FEW OR NO CLOUDS BELOW 12,000 FEET
WITH NO SIGNIFICANT WEATHER AND/OR OBSTRUCTIONS TO VISIBILITY.

WYZ001-250100-
YELLOWSTONE NATIONAL PARK

CITY           SKY/WX    TMP DP  RH WIND       PRES   REMARKS
LK YELLOWSTONE   N/A     44  32  62 VRB3      30.32R
6HR MIN TEMP:  38; 6HR MAX TEMP:  49;

W YELLOWSTONE  NOT AVBL

$$
WYZ002>013-054>058-071-098>099-250100-
NORTHERN WYOMING

CITY           SKY/WX    TMP DP  RH WIND       PRES   REMARKS
JACKSON        MOSUNNY   52  32  46 SW15      30.28R
CODY           CLOUDY    54  43  66 CALM      30.21R
GREYBULL       CLOUDY    51  47  86 E7        30.17R
6HR MIN TEMP:  48; 6HR MAX TEMP:  51; 6HR PCP:  0.15;

WORLAND        CLOUDY    49  45  86 SW10      30.18R
6HR MIN TEMP:  47; 6HR MAX TEMP:  50; 6HR PCP:  0.15;

SHERIDAN       CLOUDY    49  46  90 N5        30.11R
6HR MIN TEMP:  45; 6HR MAX TEMP:  50; 6HR PCP:  0.46;

BUFFALO        CLOUDY    48  42  80 E5        30.13R
6HR MIN TEMP:  42; 6HR MAX TEMP:  48; 6HR PCP:  0.11;

GILLETTE       LGT RAIN  45  43  93 NW21G28   30.08R
6HR MIN TEMP:  43; 6HR MAX TEMP:  45; 6HR PCP:  0.10;

HULETT         DRIZZLE   43  41  93 W18G28    30.01R
NEWCASTLE      MOCLDY    45  37  76 NW21G33   30.06R

$$
WYZ014>020-022>026-101>103-250100-
CENTRAL WYOMING

CITY           SKY/WX    TMP DP  RH WIND       PRES   REMARKS
BIG PINEY      FAIR      50  30  46 N29G36    30.29R
6HR MIN TEMP:  49; 6HR MAX TEMP:  52;

PINEDALE       MOCLDY    45  34  65 NW15      30.29R
DUBOIS         CLOUDY    45  32  61 W14G23    30.26R
LANDER         FAIR      48  40  73 S13       30.23R
6HR MIN TEMP:  41; 6HR MAX TEMP:  50; 6HR PCP:  0.07;

RIVERTON       PTSUNNY   48  42  80 S7        30.25R
6HR MIN TEMP:  41; 6HR MAX TEMP:  48; 6HR PCP:  0.12;

CASPER         FAIR      46  40  79 W14       30.19R
6HR MIN TEMP:  44; 6HR MAX TEMP:  48; 6HR PCP:  0.07;

DOUGLAS        FAIR      50  40  68 W22G30    30.14R
6HR MIN TEMP:  47; 6HR MAX TEMP:  51; 6HR PCP: TRACE;


$$
WYZ021-027>030-104>119-250100-
SOUTHERN WYOMING

CITY           SKY/WX    TMP DP  RH WIND       PRES   REMARKS
EVANSTON       CLOUDY    48  32  53 NW13      30.35R
6HR MIN TEMP:  42; 6HR MAX TEMP:  50;

FORT BRIDGER   CLOUDY    49  34  56 W17       30.36R
ROCK SPRINGS   CLOUDY    46  37  71 W10       30.27R
6HR MIN TEMP:  40; 6HR MAX TEMP:  46; 6HR PCP:  0.03;

DIXON          DRIZZLE   46  40  82 W5        30.30R
RAWLINS        CLOUDY    43  37  79 W8        30.27R
6HR MIN TEMP:  42; 6HR MAX TEMP:  46; 6HR PCP:  0.02;

SARATOGA       DRIZZLE   41  37  87 NW12      30.28R
LARAMIE        LGT RAIN  44  35  70 NW18      30.21R
6HR MIN TEMP:  43; 6HR MAX TEMP:  54; 6HR PCP: TRACE;

CHEYENNE       MOCLDY    52  36  54 NW17G30   30.16R
6HR MIN TEMP:  52; 6HR MAX TEMP:  63;

TORRINGTON     FAIR      54  38  54 NW16G23   30.09R
6HR MIN TEMP:  54; 6HR MAX TEMP:  68;

PINE BLUFFS    FAIR      55  36  47 NW20G33   30.12R

$$




USA.gov is the U.S. government's official web portal to all federal, state and local government web resources and services.